Weather at Sengwa Research Area Airstrip

Public forecast

Using degrees Celsius for public forecast. Weather courtesy of forecast.io.

Closest aviation weather report (METAR) to Sengwa Research Area Airstrip

Report is more than 6 hours old.

Closest report is Hwange National Park Airport, 73.6 nm (136.2 km) WSW. Retrieved 2020/10/29 12:00 UTC (29 days ago):

FVWN 291200Z 06007KT CAVOK 35/10 Q1016

Closest aviation forecast (TAF) to Sengwa Research Area Airstrip

Forecast is more than 12 hours old.

Closest forecast is Hwange National Park Airport, 73.6 nm (136.2 km) WSW. Retrieved 2014/01/24 05:00 UTC (7 years ago):

TAF FVWN 240400Z 2405/2418 VRB03KT CAVOK BECMG 2408/2410 9999 SCT030TCU FEW025CB PROB30 TEMPO 2410/2414 -TSRA